Location: Brunembert
(50.7122°N, 1.8935°E)
Time: 10:10:59
(UTC+00:00)

Cosmos 2151 - Pass Details

Date: 22 April 2021
Orbit: 582 x 600 km, 82.5° (Epoch: 05 May)

Event Time Altitude Azimuth Distance (km) Brightness Sun altitude
Rises 19:33:22 0° 356° (N) 2,863 7.0 -5.8°
Reaches altitude 10° 19:35:46 10° 6° (N) 1,954 5.9 -6.1°
Maximum altitude 19:39:43 34° 71° (ENE) 1,004 3.8 -6.6°
Drops below altitude 10° 19:43:37 10° 137° (SE) 1,934 5.0 -7.2°
Enters shadow 19:44:10 - 140° (SE) 2,134 5.2 -7.2°
